Current Version              Previous Version:    01  02  03  04  05  06  07  08  09  10  11  12  13  14  15  16  17  18  19  20  21  22  23  24  25  26  27  28  29  30  
   31  32  33  34  35  36  37  38  39  40  41  42  43  44  45  46  47  48  49  50  51  52  53  54  55  56  57  58  59  60  

[Printable]
486
ASUS44 KEWX 260002
RWRTX
SOUTH TEXAS REGIONAL WEATHER ROUNDUP
NATIONAL WEATHER SERVICE AUSTIN/SAN ANTONIO TX
600 PM CST TUE NOV 25 2014

NOTE: "FAIR" INDICATED FEW OR NO CLOUDS BELOW 12,000 FEET WITH NO
SIGNIFICANT WEATHER AND/OR OBSTRUCTIONS TO VISIBILITY.

* - THESE STATIONS ARE NOT NWS OR FAA STATIONS...AND ARE NOT SUBJECT
    TO NWS AND FAA QUALITY CONTROL.

TXZ171-172-183>190-260100-
TEXAS HILL COUNTRY AND EDWARDS PLATEAU

CITY           SKY/WX    TMP DP  RH WIND       PRES   REMARKS
JUNCTION       CLEAR     56  19  23 SW5       30.21S
6HR MIN TEMP:  56; 6HR MAX TEMP:  63;

*LLANO         CLEAR     59  27  29 W3        30.23S
BURNET         CLEAR     53  30  41 CALM      30.21F
6HR MIN TEMP:  53; 6HR MAX TEMP:  63;

*HORSESHOE BAY CLEAR     50  33  51 S3        30.20S
6HR MIN TEMP:  50; 6HR MAX TEMP:  66;

*KERRVILLE     CLEAR     57  22  25 SW6       30.22R
*FREDERICKSBRG CLEAR     57  22  25 CALM      30.21R
*ROCKSPRINGS   CLEAR     54  18  24 MISG      30.25S
*BOERNE STAGE  CLEAR     57  27  30 SW5       30.23R
*CASTROVILLE   CLEAR     60  28  28 SW7       30.25R HAZE
HONDO          CLEAR     55  29  36 SW8       30.24S
6HR MIN TEMP:  55; 6HR MAX TEMP:  67;

*UVALDE        CLEAR     61  27  26 W5        30.24S
DEL RIO        CLEAR     58  28  32 N8        30.22F
6HR MIN TEMP:  58; 6HR MAX TEMP:  65;

LAUGHLIN AFB   CLEAR     56  32  40 N12       30.22F
6HR MIN TEMP:  56; 6HR MAX TEMP:  64;

CARRIZO SPRGS  CLEAR     59  34  38 W3        30.23S
$$

TXZ173-191>194-202-209-217>225-228-260100-
CENTRAL AND SOUTH CENTRAL TEXAS

CITY           SKY/WX    TMP DP  RH WIND       PRES   REMARKS
GEORGETOWN     CLEAR     54  30  40 CALM      30.20S
AUSTIN/BERGSTM CLEAR     51  34  52 CALM      30.21R
6HR MIN TEMP:  51; 6HR MAX TEMP:  67;

AUSTIN/MABRY   CLEAR     56  34  43 CALM      30.21S
6HR MIN TEMP:  56; 6HR MAX TEMP:  67;

*AUSTIN/EXEC   CLEAR     59  27  29 CALM      30.21S
*LAGO VISTA    CLEAR     60  26  27 CALM      30.21R
SAN MARCOS     CLEAR     59  27  29 SW5       30.22R
NEW BRAUNFELS  CLEAR     56  31  38 SW7       30.20S
6HR MIN TEMP:  56; 6HR MAX TEMP:  69;

RANDOLPH AFB   CLEAR     60  27  27 S6        30.22R
6HR MIN TEMP:  60; 6HR MAX TEMP:  67;

PT SAN ANTONIO CLEAR     60  29  32 SW7       30.21R
6HR MIN TEMP:  60; 6HR MAX TEMP:  67;

SAN ANTONIO    PTCLDY    60  28  29 SW7       30.22R
6HR MIN TEMP:  60; 6HR MAX TEMP:  68;

STINSON FIELD  CLEAR     59  30  33 SW7       30.22R
6HR MIN TEMP:  59; 6HR MAX TEMP:  68;

*PLEASANTON    CLEAR     60  29  30 SW3       30.24R
6HR MIN TEMP:  60; 6HR MAX TEMP:  69;

*LA GRANGE     CLEAR     57  39  51 CALM      30.20F
*GIDDINGS      CLEAR     56  33  42 CALM      30.25S
*GONZALES      CLEAR     61  32  33 S3        30.22R
$$

TXZ163>164-176>182-195>201-210>213-226-227-235-260100-
SOUTHEAST TEXAS

CITY           SKY/WX    TMP DP  RH WIND       PRES   REMARKS
COLLEGE STN    CLEAR     55  35  47 SW3       30.21S
6HR MIN TEMP:  55; 6HR MAX TEMP:  65;

*BRYAN         CLEAR     58  31  36 CALM      30.22S
*CALDWELL      CLEAR     57  27  30 CALM      30.24S
*CROCKETT      CLEAR     54  37  54 CALM      30.23R
*BRENHAM       CLEAR     60  28  29 CALM      30.23R
6HR MIN TEMP:  60; 6HR MAX TEMP:  67;

HUNTSVILLE     CLEAR     54  32  43 CALM      30.21S
6HR MIN TEMP:  54; 6HR MAX TEMP:  65;

CONROE         CLEAR     49  40  71 CALM      30.23R
6HR MIN TEMP:  49; 6HR MAX TEMP:  64;

HOUSTON BUSH   CLEAR     51  35  54 CALM      30.23R
6HR MIN TEMP:  51; 6HR MAX TEMP:  66;

HOUSTON HOBBY  CLEAR     56  31  38 CALM      30.24R
6HR MIN TEMP:  56; 6HR MAX TEMP:  66;

*HOUSTON SW AP CLEAR     57  32  38 CALM      30.24S
PEARLAND       CLEAR     55  38  52 CALM      30.25S
6HR MIN TEMP:  54; 6HR MAX TEMP:  66;

HOUSTON HOOKS  CLEAR     51  35  54 CALM      30.23R
6HR MIN TEMP:  51; 6HR MAX TEMP:  66;

ELLINGTON FLD  NOT AVBL
SUGAR LAND     CLEAR     52  35  52 CALM      30.23S
6HR MIN TEMP:  52; 6HR MAX TEMP:  67;

*HOUSTON EXEC  CLEAR     55  28  35 CALM      30.24S
*CLEVELAND MUN CLEAR     49  44  83 CALM      30.23R
*WHARTON       NOT AVBL
*COLUMBUS      FAIR      55  40  57 CALM      30.22S
$$

TXZ214>216-236>238-260100-
THE UPPER TEXAS COAST

CITY           SKY/WX    TMP DP  RH WIND       PRES   REMARKS
*ORANGE        CLEAR     47  43  87 CALM      30.25S
6HR MIN TEMP:  46; 6HR MAX TEMP:  60;

PORT ARTHUR    CLEAR     48  39  71 CALM      30.23S
6HR MIN TEMP:  48; 6HR MAX TEMP:  64;

GALVESTON      CLEAR     55  39  54 SE7       30.25S
6HR MIN TEMP:  55; 6HR MAX TEMP:  63;

ANGLETON       CLEAR     50  39  66 S3        30.25R
6HR MIN TEMP:  50; 6HR MAX TEMP:  65;

*BAY CITY        N/A     60  36  40 CALM      30.24S
PALACIOS       CLEAR     59  43  55 S7        30.25S
6HR MIN TEMP:  59; 6HR MAX TEMP:  67;

$$

TXZ229>234-239>247-260100-
TEXAS COASTAL BEND AND RIO GRANDE PLAINS

CITY           SKY/WX    TMP DP  RH WIND       PRES   REMARKS
VICTORIA       CLEAR     58  35  42 S3        30.24S
6HR MIN TEMP:  58; 6HR MAX TEMP:  70;

*BEEVILLE      CLEAR     63  29  28 CALM      30.25S
ROCKPORT       CLEAR     58  39  49 S7        30.26S
6HR MIN TEMP:  58; 6HR MAX TEMP:  68;

*PORT ARANSAS  CLEAR     59  33  37 S5        30.27S
*PORT LAVACA   NOT AVBL
*INGLESIDE     CLEAR     59  38  47 S7        30.26S
CORPUS CHRISTI CLEAR     58  43  57 S6        30.26S
6HR MIN TEMP:  58; 6HR MAX TEMP:  68;

CORPUS NAS     CLEAR     53  37  54 SE7       30.26F
6HR MIN TEMP:  53; 6HR MAX TEMP:  66;

*ROBSTOWN      CLEAR     66  27  23 CALM      30.27S
ALICE          CLEAR     61  31  32 S5        30.25F
6HR MIN TEMP:  60; 6HR MAX TEMP:  69;

KINGSVILLE NAS CLEAR     62  35  36 SE3       30.26F
6HR MIN TEMP:  60; 6HR MAX TEMP:  69;

COTULLA        CLEAR     63  29  27 W3        30.24S
6HR MIN TEMP:  62; 6HR MAX TEMP:  70;

LAREDO         CLEAR     60  32  34 S5        30.27S
                   6HR MAX TEMP:  60;

$$

TXZ248>255-260100-
DEEP SOUTH TEXAS

CITY           SKY/WX    TMP DP  RH WIND       PRES   REMARKS
BROWNSVILLE    CLEAR     57  41  55 NE6       30.29S
6HR MIN TEMP:  57; 6HR MAX TEMP:  70;

PORT ISABEL    CLEAR     56  42  59 N6        30.29S
6HR MIN TEMP:  56; 6HR MAX TEMP:  70;

*SOUTH PADRE   CLEAR     61  45  55 N14       30.29S
HARLINGEN      CLEAR     55  45  68 E7        30.28S
6HR MIN TEMP:  55; 6HR MAX TEMP:  70;

*HEBBRONVILLE  CLEAR     64  24  22 CALM      30.26F
MCALLEN        CLEAR     63  29  27 NE3       30.28F
6HR MIN TEMP:  63; 6HR MAX TEMP:  70;

*WESLACO       CLEAR     63  32  31 CALM      30.28F
FALFURRIAS     CLEAR     62  31  32 CALM      30.26F
6HR MIN TEMP:  61; 6HR MAX TEMP:  68;

EDINBURG       CLEAR     63  37  37 CALM      30.28F
6HR MIN TEMP:  63; 6HR MAX TEMP:  71;

*ZAPATA        CLEAR     64  32  29 CALM      30.24F
$$

TXZ213>215-236>238-242>244-246-247-251-254-255-260100-
CMAN STATIONS

STATION/POSITION TIME  TEMP    WIND        PRES    WAVE
                       AIR SEA DIR/SP/G            HT/PER
                 (UTC) (F)     (DEG/KT/KT) (MB)    (FT/S)
SABINE PASS      2300   57 58   70/  1/  1 1023.8
SEA RIM ST PARK  2300   58     330/  4/  4 1024.5
NORTH JETTY/GLS  2300   58 59  200/  1/  1   N/A
EAGLE POINT      2300   58 59  160/  6/  7 1024.0
MORGANS POINT    2300   58     150/  3/  5 1023.7